FREGAT R/B, 40083

Orbit data source: Space-Track

FREGAT R/B, 40083 is space debris originally from a launch on Thu, 10 Jul 2014 UTC launched from the French Guiana (FRGUI). Debris objects in space refer to the collection of defunct objects orbiting the Earth. Examples of debris include non-operational satellites, rocket bodies, and fragments generated from explosions, collisions, or faulty payload assembly.

Loading next visibility...
Identifier
40083, 2014-038E
Orbit
Active
Country
Flag of CISCIS
Related business
Manufacturer
Lavochkin
Mission
Spacecraft
Bus & Motor
FREGAT, Unknown motor
Mass
1,050 kg wet, 1,050 kg dry
Launch date (UTC)
2014-07-10 (12 years ago)
Launch vehicle
Unknown
Launch site
French Guiana (FRGUI)
Object type
Payload
Rocket body
Debris
Shape & HBR
Irr, 1.6 m
Radar Cross Section
11.055 m², Large (>1 m²)

Expand to show TLE details & history
Last TLE update: 2 days ago

TLE from 2 days ago
0 FREGAT R/B
1 40083U 14038E   26171.19497444 -.00000021  00000-0  00000+0 0  9993
2 40083   0.1299 303.0150 0010952  68.4693 348.5384  5.21123070227392
Epoch: 2026-06-20T04:40Z
TLE epoch observation values (Epoch: 2026-06-20T04:40:45.791Z)
Latitude
0.10919°
Longitude
21.39602°
Altitude
7,658.41 km
Speed
5.333 km/s
True Right ascension
23h 59m 59s
True Declination
0° 06' 32"
Sunlit
Object was in daylight at epoch
Visualization orbit readout
Latitude
Unknown
Longitude
Unknown
Altitude
Unknown
Speed
Unknown
Apparent Right ascension
Unknown
Apparent Declination
Unknown
Sunlit
N/A
Visualization observer readout
Local Sidereal Time
23:19:34
Azimuth
Unknown
Elevation
Unknown
Doppler factor
Unknown
Orbital elements
Apogee altitude
7,693.592 km
Perigee altitude
7,662.803 km
Semi-major axis
14,056.335 km
Eccentricity
0.0011
Inclination
0.1299°
RAAN
303.015°
Arg. of periapsis
68.4693°
True anomaly
348.51343°
Mean anomaly
348.5384°
Eccentric anomaly
348.52592°
Mean motion
1.30237 °/min
Orbital period
276.42 mins
BSTAR
0
Loading maneuver chart data...
Computing Atmospheric mass density...
Loading historical data...
Loading historical data...
Loading historical data...
Loading historical data...
Loading historical data...
Loading historical data...
Loading historical data...
Other satellites on launch #38 in the year 2014 (2014-07-10 UTC)

Documentation

Showing up to 5 results
|